Content
SEND FEEDBACK

Daily
Averages
Monthly
Summary
Mexico

CANCUN, QUINTANA ROO


Home > North America > Mexico > Quintana Roo
Elevation: 9 meters     Latitude: 21 09N     Longitude: 086 49W

WEATHER
 
SELECT A DAY
Number of Records: 166,377;   Date Range: 1/1/95 - 10/21/14
 
SHARE

PRINT THIS DATA

[ ← Previous Day ]
WEATHER ALMANAC - 13 JULY, 2013
[ Next Day → ]
[ °F ]   °C
Weather ElementAverageHighLow
Temperature25.9 °C29 °C (8:42 am)23 °C (3:46 am)
Dewpoint24.1 °C26 °C (4:44 pm)22 °C (4:45 am)
Humidity90.6 %100 % (1:44 am)74 % (9:47 am)
Barometer1013.5 hPa1014.9 hPa (11:40 am)1011.9 hPa (3:46 am)
Wind Speed5.1 km/h11.1 km/h (9:47 am)
Weather ElementAverage
Visibility10.8 km
Wind DirectionSSE (149.1 °)

Weather ElementTotal
Precipitation---
Cooling Degree Days7.7 (Base 18.3)
Growing Degree Days16 (Base 10)
Averaged from 23 records on 13 July, 2013
WEATHER CONDITIONS BREAKOUT
WIND DIRECTION BREAKOUT
WEATHER BY HOUR - 13 JULY, 2013
[ °F ]   °C
Local TimeTemperatureDewpointHumidityBarometerVisibilityWind DirectionWind SpeedGust SpeedPrecipitationEventsConditions
1:44 AM24 °C24 °C100 %1013.2 hPa11.3 kmCalmMostly Cloudy
2:43 AM24 °C23 °C94 %1012.5 hPa11.3 kmCalmMostly Cloudy
3:46 AM23 °C23 °C100 %1011.9 hPa11.3 kmCalmMostly Cloudy
4:45 AM23 °C22 °C94 %1012.2 hPa11.3 kmCalmMostly Cloudy
5:44 AM23 °C23 °C100 %1012.5 hPa11.3 kmCalmScattered Clouds
6:43 AM24 °C23 °C94 %1012.9 hPa11.3 kmNNE (30°)9.3 km/hMostly Cloudy
7:42 AM25 °C24 °C94 %1013.5 hPa11.3 kmNNW (330°)3.7 km/hMostly Cloudy
8:42 AM29 °C25 °C79 %1013.5 hPa11.3 kmEast (80°)7.4 km/hMostly Cloudy
9:47 AM29 °C24 °C74 %1013.9 hPa11.3 kmEast (80°)11.1 km/hMostly Cloudy
10:42 AM29 °C24 °C74 %1014.6 hPa11.3 kmEast (100°)11.1 km/hMostly Cloudy
11:40 AM27 °C25 °C89 %1014.9 hPa11.3 kmEast (80°)9.3 km/hOvercast
12:40 PM29 °C25 °C79 %1014.6 hPa11.3 kmESE (110°)7.4 km/hMostly Cloudy
1:41 PM28 °C25 °C84 %1013.9 hPa11.3 kmESE (110°)11.1 km/hMostly Cloudy
2:44 PM29 °C24 °C74 %1013.2 hPa11.3 kmESE (120°)7.4 km/hOvercast
3:44 PM28 °C25 °C84 %1013.2 hPa11.3 kmENE (60°)3.7 km/hOvercast
4:44 PM27 °C26 °C94 %1012.9 hPa9.7 kmCalmRainLight Rain
5:42 PM27 °C26 °C94 %1013.2 hPa9.7 kmNW (310°)9.3 km/hOvercast
6:43 PM25 °C24 °C94 %1013.2 hPa9.7 kmNNW (330°)7.4 km/hOvercast
7:40 PM25 °C24 °C94 %1013.2 hPa9.7 kmWNW (300°)3.7 km/hOvercast
8:41 PM24 °C24 °C100 %1013.2 hPa9.7 kmNNW (340°)3.7 km/hOvercast
9:42 PM24 °C24 °C100 %1013.5 hPa9.7 kmNNW (330°)3.7 km/hOvercast
10:44 PM24 °C24 °C100 %1014.6 hPa9.7 kmNorth (360°)3.7 km/hMostly Cloudy
11:40 PM25 °C24 °C94 %1014.6 hPa9.7 kmNorth (360°)3.7 km/hMostly Cloudy
Hourly data recorded from MMUN, located 0 kilometers away from Cancun, Quintana Roo







STORIES FROM OUR PARTNERS